Location: Unspecified
(0.0000°N, 0.0000°E)
Time: 16:23:49
(UTC+00:00)

deb Explorer IX - Pass Details

Date: 28 November 2019
Orbit: 546 x 1104 km, 38.8° (Epoch: 12 December)

Event Time Altitude Azimuth Distance (km) Brightness Sun altitude
Rises 18:47:14 0° 256° (WSW) 3,564 ? -13.8°
Reaches altitude 10° 18:50:12 10° 269° (W) 2,706 ? -14.5°
Maximum altitude 18:55:31 25° 322° (NW) 1,931 ? -15.7°
Drops below altitude 10° 19:01:14 10° 15° (NNE) 2,917 ? -17.0°
Enters shadow 19:01:45 - 18° (NNE) 3,057 ? -17.1°
